owner,sensor,date,latitude,longitude,mass_concentration_of_chlorophyll_in_sea_water,qcFlag 
SCCF RECON,ioos:station:SCCF:11:1,2012-09-01T00:00:00Z,26.4679,-82.0631,7.71,1111122 
SCCF RECON,ioos:station:SCCF:11:1,2012-09-01T01:00:00Z,26.4679,-82.0631,7.51,1111122 
SCCF RECON,ioos:station:SCCF:11:1,2012-09-01T02:00:00Z,26.4679,-82.0631,7.21,1111122 
SCCF RECON,ioos:station:SCCF:11:1,2012-09-01T03:00:00Z,26.4679,-82.0631,8.63,1111122 
SCCF RECON,ioos:station:SCCF:11:1,2012-09-01T04:00:00Z,26.4679,-82.0631,7.68,1111122 
SCCF RECON,ioos:station:SCCF:11:1,2012-09-01T05:00:00Z,26.4679,-82.0631,7.7,1111122 
SCCF RECON,ioos:station:SCCF:11:1,2012-09-01T06:00:00Z,26.4679,-82.0631,7.87,1111122 
SCCF RECON,ioos:station:SCCF:11:1,2012-09-01T07:00:00Z,26.4679,-82.0631,7.62,1111122 
SCCF RECON,ioos:station:SCCF:11:1,2012-09-01T08:00:00Z,26.4679,-82.0631,7.29,1111122 
SCCF RECON,ioos:station:SCCF:11:1,2012-09-01T09:00:00Z,26.4679,-82.0631,7.03,1111122 
SCCF RECON,ioos:station:SCCF:11:1,2012-09-01T10:00:00Z,26.4679,-82.0631,6.6,1111122 
SCCF RECON,ioos:station:SCCF:11:1,2012-09-01T11:00:00Z,26.4679,-82.0631,6.42,1111122 
SCCF RECON,ioos:station:SCCF:11:1,2012-09-01T12:00:00Z,26.4679,-82.0631,6.69,1111122 
SCCF RECON,ioos:station:SCCF:11:1,2012-09-01T13:00:00Z,26.4679,-82.0631,7.27,1111122 
SCCF RECON,ioos:station:SCCF:11:1,2012-09-01T14:00:00Z,26.4679,-82.0631,6.37,1111122 
SCCF RECON,ioos:station:SCCF:11:1,2012-09-01T15:00:00Z,26.4679,-82.0631,13.77,1111122 
SCCF RECON,ioos:station:SCCF:11:1,2012-09-01T16:00:00Z,26.4679,-82.0631,9.94,1111122 
SCCF RECON,ioos:station:SCCF:11:1,2012-09-01T17:00:00Z,26.4679,-82.0631,9.68,1111122 
SCCF RECON,ioos:station:SCCF:11:1,2012-09-01T18:00:00Z,26.4679,-82.0631,8.57,1111122 
SCCF RECON,ioos:station:SCCF:11:1,2012-09-01T19:00:00Z,26.4679,-82.0631,8.51,1111122 
SCCF RECON,ioos:station:SCCF:11:1,2012-09-01T20:00:00Z,26.4679,-82.0631,10.71,1111122 
SCCF RECON,ioos:station:SCCF:11:1,2012-09-01T21:00:00Z,26.4679,-82.0631,9.73,1111122 
SCCF RECON,ioos:station:SCCF:11:1,2012-09-01T22:00:00Z,26.4679,-82.0631,9.55,1111122 
SCCF RECON,ioos:station:SCCF:11:1,2012-09-01T23:00:00Z,26.4679,-82.0631,9.46,1111122 
SCCF RECON,ioos:station:SCCF:11:1,2012-09-02T00:00:00Z,26.4679,-82.0631,9.89,1111122 
SCCF RECON,ioos:station:SCCF:11:1,2012-09-02T01:00:00Z,26.4679,-82.0631,8.94,1111122 
SCCF RECON,ioos:station:SCCF:11:1,2012-09-02T02:00:00Z,26.4679,-82.0631,8.15,1111122 
SCCF RECON,ioos:station:SCCF:11:1,2012-09-02T03:00:00Z,26.4679,-82.0631,8.28,1111122 
SCCF RECON,ioos:station:SCCF:11:1,2012-09-02T04:00:00Z,26.4679,-82.0631,9.68,1111122 
SCCF RECON,ioos:station:SCCF:11:1,2012-09-02T05:00:00Z,26.4679,-82.0631,9.14,1111122 
SCCF RECON,ioos:station:SCCF:11:1,2012-09-02T06:00:00Z,26.4679,-82.0631,8.29,1111122 
SCCF RECON,ioos:station:SCCF:11:1,2012-09-02T07:00:00Z,26.4679,-82.0631,8.55,1111122 
SCCF RECON,ioos:station:SCCF:11:1,2012-09-02T08:00:00Z,26.4679,-82.0631,9.5,1111122 
SCCF RECON,ioos:station:SCCF:11:1,2012-09-02T09:00:00Z,26.4679,-82.0631,8.87,1111122 
SCCF RECON,ioos:station:SCCF:11:1,2012-09-02T10:00:00Z,26.4679,-82.0631,7.42,1111122 
SCCF RECON,ioos:station:SCCF:11:1,2012-09-02T11:00:00Z,26.4679,-82.0631,7.57,1111122 
SCCF RECON,ioos:station:SCCF:11:1,2012-09-02T12:00:00Z,26.4679,-82.0631,7.59,1111122 
SCCF RECON,ioos:station:SCCF:11:1,2012-09-02T13:00:00Z,26.4679,-82.0631,8.12,1111122 
SCCF RECON,ioos:station:SCCF:11:1,2012-09-02T14:00:00Z,26.4679,-82.0631,7.83,1111122 
SCCF RECON,ioos:station:SCCF:11:1,2012-09-02T15:00:00Z,26.4679,-82.0631,8.62,1111122 
SCCF RECON,ioos:station:SCCF:11:1,2012-09-02T16:00:00Z,26.4679,-82.0631,10.76,1111122 
SCCF RECON,ioos:station:SCCF:11:1,2012-09-02T17:00:00Z,26.4679,-82.0631,9.92,1111122 
SCCF RECON,ioos:station:SCCF:11:1,2012-09-02T18:00:00Z,26.4679,-82.0631,10.93,1111122 
SCCF RECON,ioos:station:SCCF:11:1,2012-09-02T19:00:00Z,26.4679,-82.0631,11.24,1111122 
SCCF RECON,ioos:station:SCCF:11:1,2012-09-02T20:00:00Z,26.4679,-82.0631,10.75,1111122 
SCCF RECON,ioos:station:SCCF:11:1,2012-09-02T21:00:00Z,26.4679,-82.0631,10.34,1111122 
SCCF RECON,ioos:station:SCCF:11:1,2012-09-02T22:00:00Z,26.4679,-82.0631,10.21,1111122 
SCCF RECON,ioos:station:SCCF:11:1,2012-09-02T23:00:00Z,26.4679,-82.0631,9.84,1111122 
SCCF RECON,ioos:station:SCCF:11:1,2012-09-03T00:00:00Z,26.4679,-82.0631,10.58,1111122 
SCCF RECON,ioos:station:SCCF:11:1,2012-09-03T01:00:00Z,26.4679,-82.0631,9.12,1111122 
SCCF RECON,ioos:station:SCCF:11:1,2012-09-03T02:00:00Z,26.4679,-82.0631,8.86,1111122 
SCCF RECON,ioos:station:SCCF:11:1,2012-09-03T03:00:00Z,26.4679,-82.0631,8.29,1111122 
SCCF RECON,ioos:station:SCCF:11:1,2012-09-03T04:00:00Z,26.4679,-82.0631,8.39,1111122 
SCCF RECON,ioos:station:SCCF:11:1,2012-09-03T05:00:00Z,26.4679,-82.0631,9.23,1111122 
SCCF RECON,ioos:station:SCCF:11:1,2012-09-03T06:00:00Z,26.4679,-82.0631,9.65,1111122 
SCCF RECON,ioos:station:SCCF:11:1,2012-09-03T07:00:00Z,26.4679,-82.0631,9.17,1111122 
SCCF RECON,ioos:station:SCCF:11:1,2012-09-03T08:00:00Z,26.4679,-82.0631,8.98,1111122 
SCCF RECON,ioos:station:SCCF:11:1,2012-09-03T09:00:00Z,26.4679,-82.0631,8.18,1111122 
SCCF RECON,ioos:station:SCCF:11:1,2012-09-03T10:00:00Z,26.4679,-82.0631,7.58,1111122 
SCCF RECON,ioos:station:SCCF:11:1,2012-09-03T11:00:00Z,26.4679,-82.0631,7.82,1111122 
SCCF RECON,ioos:station:SCCF:11:1,2012-09-03T12:00:00Z,26.4679,-82.0631,8.44,1111122 
SCCF RECON,ioos:station:SCCF:11:1,2012-09-03T13:00:00Z,26.4679,-82.0631,7.39,1111122 
SCCF RECON,ioos:station:SCCF:11:1,2012-09-03T14:00:00Z,26.4679,-82.0631,8.37,1111122 
SCCF RECON,ioos:station:SCCF:11:1,2012-09-03T15:00:00Z,26.4679,-82.0631,7.6,1111122 
SCCF RECON,ioos:station:SCCF:11:1,2012-09-03T16:00:00Z,26.4679,-82.0631,8.15,1111122 
SCCF RECON,ioos:station:SCCF:11:1,2012-09-03T17:00:00Z,26.4679,-82.0631,8.83,1111122 
SCCF RECON,ioos:station:SCCF:11:1,2012-09-03T18:00:00Z,26.4679,-82.0631,9.78,1111122 
SCCF RECON,ioos:station:SCCF:11:1,2012-09-03T19:00:00Z,26.4679,-82.0631,9.81,1111122 
SCCF RECON,ioos:station:SCCF:11:1,2012-09-03T20:00:00Z,26.4679,-82.0631,8.82,1111122 
SCCF RECON,ioos:station:SCCF:11:1,2012-09-03T21:00:00Z,26.4679,-82.0631,9.74,1111122 
SCCF RECON,ioos:station:SCCF:11:1,2012-09-03T22:00:00Z,26.4679,-82.0631,9.02,1111122 
SCCF RECON,ioos:station:SCCF:11:1,2012-09-03T23:00:00Z,26.4679,-82.0631,8.94,1111122 
SCCF RECON,ioos:station:SCCF:11:1,2012-09-04T00:00:00Z,26.4679,-82.0631,9.88,1111122 
SCCF RECON,ioos:station:SCCF:11:1,2012-09-04T01:00:00Z,26.4679,-82.0631,8.34,1111122 
SCCF RECON,ioos:station:SCCF:11:1,2012-09-04T02:00:00Z,26.4679,-82.0631,8.29,1111122 
SCCF RECON,ioos:station:SCCF:11:1,2012-09-04T03:00:00Z,26.4679,-82.0631,7.65,1111122 
SCCF RECON,ioos:station:SCCF:11:1,2012-09-04T04:00:00Z,26.4679,-82.0631,6.64,1111122 
SCCF RECON,ioos:station:SCCF:11:1,2012-09-04T05:00:00Z,26.4679,-82.0631,6.78,1111122 
SCCF RECON,ioos:station:SCCF:11:1,2012-09-04T06:00:00Z,26.4679,-82.0631,7.04,1111122 
SCCF RECON,ioos:station:SCCF:11:1,2012-09-04T07:00:00Z,26.4679,-82.0631,6.76,1111122 
SCCF RECON,ioos:station:SCCF:11:1,2012-09-04T08:00:00Z,26.4679,-82.0631,7.47,1111122 
SCCF RECON,ioos:station:SCCF:11:1,2012-09-04T09:00:00Z,26.4679,-82.0631,7.53,1111122 
SCCF RECON,ioos:station:SCCF:11:1,2012-09-04T10:00:00Z,26.4679,-82.0631,6.47,1111122 
SCCF RECON,ioos:station:SCCF:11:1,2012-09-04T11:00:00Z,26.4679,-82.0631,6.27,1111122 
SCCF RECON,ioos:station:SCCF:11:1,2012-09-04T12:00:00Z,26.4679,-82.0631,6.63,1111122 
SCCF RECON,ioos:station:SCCF:11:1,2012-09-04T13:00:00Z,26.4679,-82.0631,6.43,1111122 
SCCF RECON,ioos:station:SCCF:11:1,2012-09-04T14:00:00Z,26.4679,-82.0631,6.45,1111122 
SCCF RECON,ioos:station:SCCF:11:1,2012-09-04T15:00:00Z,26.4679,-82.0631,7.32,1111122 
SCCF RECON,ioos:station:SCCF:11:1,2012-09-04T16:00:00Z,26.4679,-82.0631,7.74,1111122 
SCCF RECON,ioos:station:SCCF:11:1,2012-09-04T17:00:00Z,26.4679,-82.0631,7.27,1111122 
SCCF RECON,ioos:station:SCCF:11:1,2012-09-04T18:00:00Z,26.4679,-82.0631,7.57,1111122 
SCCF RECON,ioos:station:SCCF:11:1,2012-09-04T19:00:00Z,26.4679,-82.0631,7.71,1111122 
SCCF RECON,ioos:station:SCCF:11:1,2012-09-04T20:00:00Z,26.4679,-82.0631,8.38,1111122 
SCCF RECON,ioos:station:SCCF:11:1,2012-09-04T21:00:00Z,26.4679,-82.0631,9.94,1111122 
SCCF RECON,ioos:station:SCCF:11:1,2012-09-04T22:00:00Z,26.4679,-82.0631,8.49,1111122 
SCCF RECON,ioos:station:SCCF:11:1,2012-09-04T23:00:00Z,26.4679,-82.0631,8.77,1111122 
SCCF RECON,ioos:station:SCCF:11:1,2012-09-05T00:00:00Z,26.4679,-82.0631,8.11,1111122 
SCCF RECON,ioos:station:SCCF:11:1,2012-09-05T01:00:00Z,26.4679,-82.0631,7.43,1111122 
SCCF RECON,ioos:station:SCCF:11:1,2012-09-05T02:00:00Z,26.4679,-82.0631,7.15,1111122 
SCCF RECON,ioos:station:SCCF:11:1,2012-09-05T03:00:00Z,26.4679,-82.0631,6.95,1111122 
SCCF RECON,ioos:station:SCCF:11:1,2012-09-05T04:00:00Z,26.4679,-82.0631,6.51,1111122 
SCCF RECON,ioos:station:SCCF:11:1,2012-09-05T05:00:00Z,26.4679,-82.0631,5.73,1111122 
SCCF RECON,ioos:station:SCCF:11:1,2012-09-05T06:00:00Z,26.4679,-82.0631,6.08,1111122 
SCCF RECON,ioos:station:SCCF:11:1,2012-09-05T07:00:00Z,26.4679,-82.0631,5.8,1111122 
SCCF RECON,ioos:station:SCCF:11:1,2012-09-05T08:00:00Z,26.4679,-82.0631,6.39,1111122 
SCCF RECON,ioos:station:SCCF:11:1,2012-09-05T09:00:00Z,26.4679,-82.0631,6.05,1111122 
SCCF RECON,ioos:station:SCCF:11:1,2012-09-05T10:00:00Z,26.4679,-82.0631,6.59,1111122 
SCCF RECON,ioos:station:SCCF:11:1,2012-09-05T11:00:00Z,26.4679,-82.0631,5.75,1111122 
SCCF RECON,ioos:station:SCCF:11:1,2012-09-05T12:00:00Z,26.4679,-82.0631,6.19,1111122 
SCCF RECON,ioos:station:SCCF:11:1,2012-09-05T13:00:00Z,26.4679,-82.0631,6.01,1111122 
SCCF RECON,ioos:station:SCCF:11:1,2012-09-05T14:00:00Z,26.4679,-82.0631,6.04,1111122 
SCCF RECON,ioos:station:SCCF:11:1,2012-09-05T15:00:00Z,26.4679,-82.0631,6.49,1111122 
SCCF RECON,ioos:station:SCCF:11:1,2012-09-05T16:00:00Z,26.4679,-82.0631,6.34,1111122 
SCCF RECON,ioos:station:SCCF:11:1,2012-09-05T17:00:00Z,26.4679,-82.0631,7.65,1111122 
SCCF RECON,ioos:station:SCCF:11:1,2012-09-05T18:00:00Z,26.4679,-82.0631,7.28,1111122 
SCCF RECON,ioos:station:SCCF:11:1,2012-09-05T19:00:00Z,26.4679,-82.0631,8.55,1111122 
SCCF RECON,ioos:station:SCCF:11:1,2012-09-05T20:00:00Z,26.4679,-82.0631,8.28,1111122 
SCCF RECON,ioos:station:SCCF:11:1,2012-09-05T21:00:00Z,26.4679,-82.0631,8.65,1111122 
SCCF RECON,ioos:station:SCCF:11:1,2012-09-05T22:00:00Z,26.4679,-82.0631,9.13,1111122 
SCCF RECON,ioos:station:SCCF:11:1,2012-09-05T23:00:00Z,26.4679,-82.0631,8.31,1111122 
SCCF RECON,ioos:station:SCCF:11:1,2012-09-06T00:00:00Z,26.4679,-82.0631,8.05,1111122 
SCCF RECON,ioos:station:SCCF:11:1,2012-09-06T01:00:00Z,26.4679,-82.0631,7.38,1111122 
SCCF RECON,ioos:station:SCCF:11:1,2012-09-06T02:00:00Z,26.4679,-82.0631,7.0,1111122 
SCCF RECON,ioos:station:SCCF:11:1,2012-09-06T03:00:00Z,26.4679,-82.0631,6.31,1111122 
SCCF RECON,ioos:station:SCCF:11:1,2012-09-06T04:00:00Z,26.4679,-82.0631,5.9,1111122 
SCCF RECON,ioos:station:SCCF:11:1,2012-09-06T05:00:00Z,26.4679,-82.0631,5.89,1111122 
SCCF RECON,ioos:station:SCCF:11:1,2012-09-06T06:00:00Z,26.4679,-82.0631,5.38,1111122 
SCCF RECON,ioos:station:SCCF:11:1,2012-09-06T07:00:00Z,26.4679,-82.0631,6.32,1111122 
SCCF RECON,ioos:station:SCCF:11:1,2012-09-06T08:00:00Z,26.4679,-82.0631,5.69,1111122 
SCCF RECON,ioos:station:SCCF:11:1,2012-09-06T09:00:00Z,26.4679,-82.0631,5.99,1111122 
SCCF RECON,ioos:station:SCCF:11:1,2012-09-06T10:00:00Z,26.4679,-82.0631,5.4,1111122 
SCCF RECON,ioos:station:SCCF:11:1,2012-09-06T11:00:00Z,26.4679,-82.0631,5.82,1111122 
SCCF RECON,ioos:station:SCCF:11:1,2012-09-06T12:00:00Z,26.4679,-82.0631,6.05,1111122 
SCCF RECON,ioos:station:SCCF:11:1,2012-09-06T13:00:00Z,26.4679,-82.0631,5.84,1111122 
SCCF RECON,ioos:station:SCCF:11:1,2012-09-06T14:00:00Z,26.4679,-82.0631,5.38,1111122 
SCCF RECON,ioos:station:SCCF:11:1,2012-09-06T15:00:00Z,26.4679,-82.0631,5.72,1111122 
SCCF RECON,ioos:station:SCCF:11:1,2012-09-06T16:00:00Z,26.4679,-82.0631,5.66,1111122 
SCCF RECON,ioos:station:SCCF:11:1,2012-09-06T17:00:00Z,26.4679,-82.0631,6.14,1111122 
SCCF RECON,ioos:station:SCCF:11:1,2012-09-06T18:00:00Z,26.4679,-82.0631,6.75,1111122 
SCCF RECON,ioos:station:SCCF:11:1,2012-09-06T19:00:00Z,26.4679,-82.0631,7.43,1111122 
SCCF RECON,ioos:station:SCCF:11:1,2012-09-06T20:00:00Z,26.4679,-82.0631,7.21,1111122 
SCCF RECON,ioos:station:SCCF:11:1,2012-09-06T21:00:00Z,26.4679,-82.0631,6.51,1111122 
SCCF RECON,ioos:station:SCCF:11:1,2012-09-06T22:00:00Z,26.4679,-82.0631,8.19,1111122 
SCCF RECON,ioos:station:SCCF:11:1,2012-09-06T23:00:00Z,26.4679,-82.0631,7.56,1111122 
SCCF RECON,ioos:station:SCCF:11:1,2012-09-07T00:00:00Z,26.4679,-82.0631,7.66,1111122 
SCCF RECON,ioos:station:SCCF:11:1,2012-09-07T01:00:00Z,26.4679,-82.0631,7.02,1111122 
SCCF RECON,ioos:station:SCCF:11:1,2012-09-07T02:00:00Z,26.4679,-82.0631,6.89,1111122 
SCCF RECON,ioos:station:SCCF:11:1,2012-09-07T03:00:00Z,26.4679,-82.0631,6.21,1111122 
SCCF RECON,ioos:station:SCCF:11:1,2012-09-07T04:00:00Z,26.4679,-82.0631,5.04,1111122 
SCCF RECON,ioos:station:SCCF:11:1,2012-09-07T05:00:00Z,26.4679,-82.0631,6.63,1111122 
SCCF RECON,ioos:station:SCCF:11:1,2012-09-07T06:00:00Z,26.4679,-82.0631,6.65,1111122 
SCCF RECON,ioos:station:SCCF:11:1,2012-09-07T07:00:00Z,26.4679,-82.0631,6.24,1111122 
SCCF RECON,ioos:station:SCCF:11:1,2012-09-07T08:00:00Z,26.4679,-82.0631,6.14,1111122 
SCCF RECON,ioos:station:SCCF:11:1,2012-09-07T09:00:00Z,26.4679,-82.0631,5.88,1111122 
SCCF RECON,ioos:station:SCCF:11:1,2012-09-07T10:00:00Z,26.4679,-82.0631,5.25,1111122 
SCCF RECON,ioos:station:SCCF:11:1,2012-09-07T11:00:00Z,26.4679,-82.0631,6.0,1111122 
SCCF RECON,ioos:station:SCCF:11:1,2012-09-07T12:00:00Z,26.4679,-82.0631,6.46,1111122 
SCCF RECON,ioos:station:SCCF:11:1,2012-09-07T13:00:00Z,26.4679,-82.0631,5.22,1111122 
SCCF RECON,ioos:station:SCCF:11:1,2012-09-07T14:00:00Z,26.4679,-82.0631,5.03,1111122 
SCCF RECON,ioos:station:SCCF:11:1,2012-09-07T15:00:00Z,26.4679,-82.0631,4.77,1111122 
SCCF RECON,ioos:station:SCCF:11:1,2012-09-07T16:00:00Z,26.4679,-82.0631,5.5,1111122 
SCCF RECON,ioos:station:SCCF:11:1,2012-09-07T17:00:00Z,26.4679,-82.0631,5.59,1111122 
SCCF RECON,ioos:station:SCCF:11:1,2012-09-07T18:00:00Z,26.4679,-82.0631,6.31,1111122 
SCCF RECON,ioos:station:SCCF:11:1,2012-09-07T19:00:00Z,26.4679,-82.0631,5.65,1111122 
SCCF RECON,ioos:station:SCCF:11:1,2012-09-07T20:00:00Z,26.4679,-82.0631,7.09,1111122 
SCCF RECON,ioos:station:SCCF:11:1,2012-09-07T21:00:00Z,26.4679,-82.0631,6.8,1111122 
SCCF RECON,ioos:station:SCCF:11:1,2012-09-07T22:00:00Z,26.4679,-82.0631,6.74,1111122 
SCCF RECON,ioos:station:SCCF:11:1,2012-09-07T23:00:00Z,26.4679,-82.0631,7.19,1111122 
SCCF RECON,ioos:station:SCCF:11:1,2012-09-08T00:00:00Z,26.4679,-82.0631,7.67,1111122 
SCCF RECON,ioos:station:SCCF:11:1,2012-09-08T01:00:00Z,26.4679,-82.0631,6.29,1111122 
SCCF RECON,ioos:station:SCCF:11:1,2012-09-08T02:00:00Z,26.4679,-82.0631,6.38,1111122 
SCCF RECON,ioos:station:SCCF:11:1,2012-09-08T03:00:00Z,26.4679,-82.0631,7.42,1111122 
SCCF RECON,ioos:station:SCCF:11:1,2012-09-08T04:00:00Z,26.4679,-82.0631,5.76,1111122 
SCCF RECON,ioos:station:SCCF:11:1,2012-09-08T05:00:00Z,26.4679,-82.0631,5.12,1111122 
SCCF RECON,ioos:station:SCCF:11:1,2012-09-08T06:00:00Z,26.4679,-82.0631,4.54,1111122 
SCCF RECON,ioos:station:SCCF:11:1,2012-09-08T07:00:00Z,26.4679,-82.0631,4.08,1111122 
SCCF RECON,ioos:station:SCCF:11:1,2012-09-08T08:00:00Z,26.4679,-82.0631,4.05,1111122 
SCCF RECON,ioos:station:SCCF:11:1,2012-09-08T09:00:00Z,26.4679,-82.0631,4.33,1111122 
SCCF RECON,ioos:station:SCCF:11:1,2012-09-08T10:00:00Z,26.4679,-82.0631,5.04,1111122 
SCCF RECON,ioos:station:SCCF:11:1,2012-09-08T11:00:00Z,26.4679,-82.0631,5.34,1111122 
SCCF RECON,ioos:station:SCCF:11:1,2012-09-08T12:00:00Z,26.4679,-82.0631,5.19,1111122 
SCCF RECON,ioos:station:SCCF:11:1,2012-09-08T13:00:00Z,26.4679,-82.0631,4.65,1111122 
SCCF RECON,ioos:station:SCCF:11:1,2012-09-08T14:00:00Z,26.4679,-82.0631,4.42,1111122 
SCCF RECON,ioos:station:SCCF:11:1,2012-09-08T15:00:00Z,26.4679,-82.0631,4.43,1111122 
SCCF RECON,ioos:station:SCCF:11:1,2012-09-08T16:00:00Z,26.4679,-82.0631,4.46,1111122 
SCCF RECON,ioos:station:SCCF:11:1,2012-09-08T17:00:00Z,26.4679,-82.0631,4.47,1111122 
SCCF RECON,ioos:station:SCCF:11:1,2012-09-08T18:00:00Z,26.4679,-82.0631,4.78,1111122 
SCCF RECON,ioos:station:SCCF:11:1,2012-09-08T19:00:00Z,26.4679,-82.0631,5.47,1111122 
SCCF RECON,ioos:station:SCCF:11:1,2012-09-08T20:00:00Z,26.4679,-82.0631,5.82,1111122 
SCCF RECON,ioos:station:SCCF:11:1,2012-09-08T21:00:00Z,26.4679,-82.0631,6.61,1111122 
SCCF RECON,ioos:station:SCCF:11:1,2012-09-08T22:00:00Z,26.4679,-82.0631,6.16,1111122 
SCCF RECON,ioos:station:SCCF:11:1,2012-09-08T23:00:00Z,26.4679,-82.0631,5.14,1111122 
SCCF RECON,ioos:station:SCCF:11:1,2012-09-09T00:00:00Z,26.4679,-82.0631,4.87,1111122 
SCCF RECON,ioos:station:SCCF:11:1,2012-09-09T01:00:00Z,26.4679,-82.0631,4.74,1111122 
SCCF RECON,ioos:station:SCCF:11:1,2012-09-09T02:00:00Z,26.4679,-82.0631,5.07,1111122 
SCCF RECON,ioos:station:SCCF:11:1,2012-09-09T03:00:00Z,26.4679,-82.0631,4.99,1111122 
SCCF RECON,ioos:station:SCCF:11:1,2012-09-09T04:00:00Z,26.4679,-82.0631,4.81,1111122 
SCCF RECON,ioos:station:SCCF:11:1,2012-09-09T05:00:00Z,26.4679,-82.0631,3.97,1111122 
SCCF RECON,ioos:station:SCCF:11:1,2012-09-09T06:00:00Z,26.4679,-82.0631,4.37,1111122 
SCCF RECON,ioos:station:SCCF:11:1,2012-09-09T07:00:00Z,26.4679,-82.0631,4.07,1111122 
SCCF RECON,ioos:station:SCCF:11:1,2012-09-09T08:00:00Z,26.4679,-82.0631,3.97,1111122 
SCCF RECON,ioos:station:SCCF:11:1,2012-09-09T09:00:00Z,26.4679,-82.0631,3.87,1111122 
SCCF RECON,ioos:station:SCCF:11:1,2012-09-09T10:00:00Z,26.4679,-82.0631,4.34,1111122 
SCCF RECON,ioos:station:SCCF:11:1,2012-09-09T11:00:00Z,26.4679,-82.0631,3.88,1111122 
SCCF RECON,ioos:station:SCCF:11:1,2012-09-09T12:00:00Z,26.4679,-82.0631,4.68,1111122 
SCCF RECON,ioos:station:SCCF:11:1,2012-09-09T13:00:00Z,26.4679,-82.0631,4.68,1111122 
SCCF RECON,ioos:station:SCCF:11:1,2012-09-09T14:00:00Z,26.4679,-82.0631,5.0,1111122 
SCCF RECON,ioos:station:SCCF:11:1,2012-09-09T15:00:00Z,26.4679,-82.0631,5.07,1111122 
SCCF RECON,ioos:station:SCCF:11:1,2012-09-09T16:00:00Z,26.4679,-82.0631,4.86,1111122 
SCCF RECON,ioos:station:SCCF:11:1,2012-09-09T17:00:00Z,26.4679,-82.0631,5.39,1111122 
SCCF RECON,ioos:station:SCCF:11:1,2012-09-09T18:00:00Z,26.4679,-82.0631,5.41,1111122 
SCCF RECON,ioos:station:SCCF:11:1,2012-09-09T19:00:00Z,26.4679,-82.0631,5.93,1111122 
SCCF RECON,ioos:station:SCCF:11:1,2012-09-09T20:00:00Z,26.4679,-82.0631,7.12,1111122 
SCCF RECON,ioos:station:SCCF:11:1,2012-09-09T21:00:00Z,26.4679,-82.0631,6.67,1111122 
SCCF RECON,ioos:station:SCCF:11:1,2012-09-09T22:00:00Z,26.4679,-82.0631,6.13,1111122 
SCCF RECON,ioos:station:SCCF:11:1,2012-09-09T23:00:00Z,26.4679,-82.0631,6.18,1111122 
SCCF RECON,ioos:station:SCCF:11:1,2012-09-10T00:00:00Z,26.4679,-82.0631,5.82,1111122 
SCCF RECON,ioos:station:SCCF:11:1,2012-09-10T01:00:00Z,26.4679,-82.0631,5.68,1111122 
SCCF RECON,ioos:station:SCCF:11:1,2012-09-10T02:00:00Z,26.4679,-82.0631,4.85,1111122 
SCCF RECON,ioos:station:SCCF:11:1,2012-09-10T03:00:00Z,26.4679,-82.0631,5.27,1111122 
SCCF RECON,ioos:station:SCCF:11:1,2012-09-10T04:00:00Z,26.4679,-82.0631,5.16,1111122 
SCCF RECON,ioos:station:SCCF:11:1,2012-09-10T05:00:00Z,26.4679,-82.0631,4.79,1111122 
SCCF RECON,ioos:station:SCCF:11:1,2012-09-10T06:00:00Z,26.4679,-82.0631,4.61,1111122 
SCCF RECON,ioos:station:SCCF:11:1,2012-09-10T07:00:00Z,26.4679,-82.0631,5.04,1111122 
SCCF RECON,ioos:station:SCCF:11:1,2012-09-10T08:00:00Z,26.4679,-82.0631,4.73,1111122 
SCCF RECON,ioos:station:SCCF:11:1,2012-09-10T09:00:00Z,26.4679,-82.0631,4.85,1111122 
SCCF RECON,ioos:station:SCCF:11:1,2012-09-10T10:00:00Z,26.4679,-82.0631,4.72,1111122 
SCCF RECON,ioos:station:SCCF:11:1,2012-09-10T11:00:00Z,26.4679,-82.0631,4.84,1111122 
SCCF RECON,ioos:station:SCCF:11:1,2012-09-10T12:00:00Z,26.4679,-82.0631,4.46,1111122 
SCCF RECON,ioos:station:SCCF:11:1,2012-09-10T13:00:00Z,26.4679,-82.0631,5.43,1111122 
SCCF RECON,ioos:station:SCCF:11:1,2012-09-10T14:00:00Z,26.4679,-82.0631,5.37,1111122 
SCCF RECON,ioos:station:SCCF:11:1,2012-09-10T15:00:00Z,26.4679,-82.0631,5.31,1111122 
SCCF RECON,ioos:station:SCCF:11:1,2012-09-10T16:00:00Z,26.4679,-82.0631,5.94,1111122 
SCCF RECON,ioos:station:SCCF:11:1,2012-09-10T17:00:00Z,26.4679,-82.0631,6.01,1111122 
SCCF RECON,ioos:station:SCCF:11:1,2012-09-10T18:00:00Z,26.4679,-82.0631,6.4,1111122 
SCCF RECON,ioos:station:SCCF:11:1,2012-09-10T19:00:00Z,26.4679,-82.0631,7.09,1111122 
SCCF RECON,ioos:station:SCCF:11:1,2012-09-10T20:00:00Z,26.4679,-82.0631,7.03,1111122 
SCCF RECON,ioos:station:SCCF:11:1,2012-09-10T21:00:00Z,26.4679,-82.0631,8.08,1111122 
SCCF RECON,ioos:station:SCCF:11:1,2012-09-10T22:00:00Z,26.4679,-82.0631,6.96,1111122 
SCCF RECON,ioos:station:SCCF:11:1,2012-09-10T23:00:00Z,26.4679,-82.0631,7.2,1111122 
SCCF RECON,ioos:station:SCCF:11:1,2012-09-11T00:00:00Z,26.4679,-82.0631,7.03,1111122 
SCCF RECON,ioos:station:SCCF:11:1,2012-09-11T01:00:00Z,26.4679,-82.0631,6.79,1111122 
SCCF RECON,ioos:station:SCCF:11:1,2012-09-11T02:00:00Z,26.4679,-82.0631,6.64,1111122 
SCCF RECON,ioos:station:SCCF:11:1,2012-09-11T03:00:00Z,26.4679,-82.0631,6.19,1111122 
SCCF RECON,ioos:station:SCCF:11:1,2012-09-11T04:00:00Z,26.4679,-82.0631,6.05,1111122 
SCCF RECON,ioos:station:SCCF:11:1,2012-09-11T05:00:00Z,26.4679,-82.0631,5.45,1111122 
SCCF RECON,ioos:station:SCCF:11:1,2012-09-11T06:00:00Z,26.4679,-82.0631,5.95,1111122 
SCCF RECON,ioos:station:SCCF:11:1,2012-09-11T07:00:00Z,26.4679,-82.0631,5.72,1111122 
SCCF RECON,ioos:station:SCCF:11:1,2012-09-11T08:00:00Z,26.4679,-82.0631,5.39,1111122 
SCCF RECON,ioos:station:SCCF:11:1,2012-09-11T09:00:00Z,26.4679,-82.0631,5.57,1111122 
SCCF RECON,ioos:station:SCCF:11:1,2012-09-11T10:00:00Z,26.4679,-82.0631,5.12,1111122 
SCCF RECON,ioos:station:SCCF:11:1,2012-09-11T11:00:00Z,26.4679,-82.0631,5.17,1111122 
SCCF RECON,ioos:station:SCCF:11:1,2012-09-11T12:00:00Z,26.4679,-82.0631,6.15,1111122 
SCCF RECON,ioos:station:SCCF:11:1,2012-09-11T13:00:00Z,26.4679,-82.0631,5.7,1111122 
SCCF RECON,ioos:station:SCCF:11:1,2012-09-11T14:00:00Z,26.4679,-82.0631,5.75,1111122 
SCCF RECON,ioos:station:SCCF:11:1,2012-09-11T15:00:00Z,26.4679,-82.0631,5.66,1111122 
SCCF RECON,ioos:station:SCCF:11:1,2012-09-11T16:00:00Z,26.4679,-82.0631,6.91,1111122 
SCCF RECON,ioos:station:SCCF:11:1,2012-09-11T17:00:00Z,26.4679,-82.0631,6.0,1111122 
SCCF RECON,ioos:station:SCCF:11:1,2012-09-11T18:00:00Z,26.4679,-82.0631,5.95,1111122 
SCCF RECON,ioos:station:SCCF:11:1,2012-09-11T19:00:00Z,26.4679,-82.0631,6.28,1111122 
SCCF RECON,ioos:station:SCCF:11:1,2012-09-11T20:00:00Z,26.4679,-82.0631,6.65,1111122 
SCCF RECON,ioos:station:SCCF:11:1,2012-09-11T21:00:00Z,26.4679,-82.0631,7.78,1111122 
SCCF RECON,ioos:station:SCCF:11:1,2012-09-11T22:00:00Z,26.4679,-82.0631,8.58,1111122 
SCCF RECON,ioos:station:SCCF:11:1,2012-09-11T23:00:00Z,26.4679,-82.0631,7.84,1111122 
SCCF RECON,ioos:station:SCCF:11:1,2012-09-12T00:00:00Z,26.4679,-82.0631,7.96,1111122 
SCCF RECON,ioos:station:SCCF:11:1,2012-09-12T01:00:00Z,26.4679,-82.0631,8.61,1111122 
SCCF RECON,ioos:station:SCCF:11:1,2012-09-12T02:00:00Z,26.4679,-82.0631,9.44,1111122 
SCCF RECON,ioos:station:SCCF:11:1,2012-09-12T03:00:00Z,26.4679,-82.0631,9.81,1111122 
SCCF RECON,ioos:station:SCCF:11:1,2012-09-12T04:00:00Z,26.4679,-82.0631,10.07,1111122 
SCCF RECON,ioos:station:SCCF:11:1,2012-09-12T05:00:00Z,26.4679,-82.0631,9.86,1111122 
SCCF RECON,ioos:station:SCCF:11:1,2012-09-12T06:00:00Z,26.4679,-82.0631,10.17,1111122 
SCCF RECON,ioos:station:SCCF:11:1,2012-09-12T07:00:00Z,26.4679,-82.0631,8.02,1111122 
SCCF RECON,ioos:station:SCCF:11:1,2012-09-12T08:00:00Z,26.4679,-82.0631,8.03,1111122 
SCCF RECON,ioos:station:SCCF:11:1,2012-09-12T09:00:00Z,26.4679,-82.0631,8.09,1111122 
SCCF RECON,ioos:station:SCCF:11:1,2012-09-12T10:00:00Z,26.4679,-82.0631,7.48,1111122 
SCCF RECON,ioos:station:SCCF:11:1,2012-09-12T11:00:00Z,26.4679,-82.0631,7.59,1111122 
SCCF RECON,ioos:station:SCCF:11:1,2012-09-12T12:00:00Z,26.4679,-82.0631,7.23,1111122 
SCCF RECON,ioos:station:SCCF:11:1,2012-09-12T13:00:00Z,26.4679,-82.0631,7.08,1111122 